{"data":{"norad_id":22988,"epoch":"2026-05-24T14:20:56.076864Z","epoch_age_seconds":123991,"freshness":"FRESH","line1":"1 22988U 94009A   26144.59787126 -.00000254  00000+0  00000+0 0  9993","line2":"2 22988  17.5936  27.9526 0000954 267.9667 298.2395  0.98723893 32714","mean_motion":0.98723893,"eccentricity":9.54e-5,"inclination_deg":17.5936,"raan_deg":27.9526,"arg_perigee_deg":267.9667,"mean_anomaly_deg":298.2395,"bstar":0,"rev_number":3271,"period_min":1458.6134685754,"perigee_km":36222.120662154,"apogee_km":36230.249566814,"semimajor_km":42604.322114484,"source":"CELESTRAK","updated_at":"2026-05-25T13:38:13.805303Z"}}